| time (UTC) | temp F | wind direction | speed knots | gust knots | rain 1hr in | rain 24hr in | rain mn in | humidity % | barometer mb |
| 20260509064521 | 70 | 165 | 0.0 | 3.5 | 0.00 | 0.00 | 0.00 | 84 | 1005.5 |
| 20260509063028 | 70 | 177 | 0.0 | 4.3 | 0.00 | 0.00 | 0.00 | 83 | 1005.5 |
| 20260509061518 | 70 | 168 | 2.6 | 7.0 | 0.00 | 0.00 | 0.00 | 83 | 1004.9 |
| 20260509054559 | 71 | 166 | 1.7 | 4.3 | 0.00 | 0.00 | 0.00 | 81 | 1004.8 |
| 20260509053109 | 72 | 229 | 0.0 | 0.9 | 0.00 | 0.00 | 0.00 | 81 | 1005.7 |
| 20260509051601 | 72 | 193 | 0.0 | 3.5 | 0.00 | 0.00 | 0.00 | 81 | 1005.9 |
| 20260509044545 | 72 | 326 | 3.5 | 4.3 | 0.00 | 0.00 | 0.00 | 80 | 1005.9 |
| 20260509043052 | 72 | 171 | 0.0 | 6.1 | 0.00 | 0.00 | 0.00 | 79 | 1005.1 |
| 20260509041544 | 72 | 196 | 2.6 | 6.1 | 0.00 | 0.00 | 0.00 | 79 | 1004.6 |
| 20260509034545 | 72 | 174 | 3.5 | 7.0 | 0.00 | 0.00 | 0.00 | 78 | 1004.6 |
| 20260509033107 | 72 | 186 | 2.6 | 5.2 | 0.00 | 0.00 | 0.00 | 79 | 1004.8 |
| 20260509031544 | 72 | 322 | 3.5 | 5.2 | 0.00 | 0.00 | 0.00 | 79 | 1005.9 |
| 20260509024556 | 72 | 88 | 0.0 | 1.7 | 0.00 | 0.00 | 0.00 | 78 | 1005.1 |
| 20260509023045 | 72 | 121 | 0.0 | 3.5 | 0.00 | 0.00 | 0.00 | 77 | 1004.8 |
| 20260509021547 | 72 | 175 | 0.0 | 5.2 | 0.00 | 0.00 | 0.00 | 76 | 1003.9 |
| 20260509014553 | 73 | 158 | 0.9 | 5.2 | 0.00 | 0.00 | 0.00 | 75 | 1003.7 |
| 20260509013055 | 74 | 190 | 1.7 | 5.2 | 0.00 | 0.00 | 0.00 | 74 | 1003.5 |
| 20260509011559 | 74 | 164 | 0.9 | 6.1 | 0.00 | 0.00 | 0.00 | 74 | 1003.7 |
| 20260509004549 | 75 | 165 | 1.7 | 4.3 | 0.00 | 0.00 | 0.00 | 72 | 1003.5 |
| 20260509003051 | 75 | 181 | 3.5 | 7.0 | 0.00 | 0.00 | 0.00 | 72 | 1003.2 |
| 20260509001544 | 75 | 162 | 1.7 | 5.2 | 0.00 | 0.00 | 0.00 | 71 | 1003.1 |
| 20260508234539 | 76 | 175 | 4.3 | 8.7 | 0.00 | 0.00 | 0.00 | 70 | 1003.4 |
| 20260508233038 | 77 | 176 | 2.6 | 7.0 | 0.00 | 0.00 | 0.00 | 69 | 1003.5 |
| 20260508231536 | 77 | 184 | 4.3 | 8.7 | 0.00 | 0.00 | 0.00 | 68 | 1003.6 |
| 20260508224543 | 78 | 199 | 1.7 | 5.2 | 0.00 | 0.00 | 0.00 | 67 | 1003.6 |
| 20260508223034 | 78 | 192 | 1.7 | 6.1 | 0.00 | 0.00 | 0.00 | 66 | 1003.6 |
| 20260508221534 | 79 | 185 | 3.5 | 6.1 | 0.00 | 0.00 | 0.00 | 65 | 1003.6 |
| 20260508214542 | 78 | 152 | 4.3 | 7.8 | 0.00 | 0.00 | 0.00 | 65 | 1003.7 |
| 20260508213038 | 78 | 198 | 2.6 | 7.8 | 0.00 | 0.00 | 0.00 | 66 | 1003.5 |
| 20260508211534 | 78 | 182 | 2.6 | 7.8 | 0.00 | 0.00 | 0.00 | 65 | 1003.7 |
| 20260508204550 | 76 | 175 | 3.5 | 9.6 | 0.00 | 0.00 | 0.00 | 66 | 1005.0 |
| 20260508203049 | 77 | 194 | 4.3 | 7.8 | 0.00 | 0.00 | 0.00 | 65 | 1005.3 |
| 20260508201548 | 78 | 156 | 3.5 | 7.0 | 0.00 | 0.00 | 0.00 | 63 | 1005.4 |
| 20260508194526 | 79 | 180 | 4.3 | 7.8 | 0.00 | 0.00 | 0.00 | 60 | 1005.7 |
| 20260508193023 | 79 | 196 | 2.6 | 7.8 | 0.00 | 0.00 | 0.00 | 61 | 1005.7 |
| 20260508191522 | 79 | 171 | 3.5 | 7.0 | 0.00 | 0.00 | 0.00 | 60 | 1005.9 |
| 20260508184521 | 78 | 199 | 1.7 | 8.7 | 0.00 | 0.00 | 0.00 | 63 | 1006.2 |
| 20260508183013 | 77 | 157 | 3.5 | 7.8 | 0.00 | 0.00 | 0.00 | 62 | 1006.4 |
| 20260508181510 | 76 | 188 | 1.7 | 6.1 | 0.00 | 0.00 | 0.00 | 65 | 1006.9 |
| 20260508174505 | 75 | 184 | 1.7 | 5.2 | 0.00 | 0.00 | 0.00 | 66 | 1007.3 |
| 20260508173001 | 74 | 177 | 0.0 | 7.0 | 0.00 | 0.00 | 0.00 | 66 | 1007.5 |
| 20260508171559 | 73 | 186 | 2.6 | 6.1 | 0.00 | 0.00 | 0.00 | 65 | 1008.0 |
| 20260508164553 | 71 | 157 | 3.5 | 8.7 | 0.00 | 0.00 | 0.00 | 69 | 1008.7 |
| 20260508163103 | 70 | 173 | 0.9 | 5.2 | 0.00 | 0.00 | 0.00 | 71 | 1008.9 |
| 20260508161555 | 69 | 188 | 1.7 | 6.1 | 0.00 | 0.00 | 0.00 | 71 | 1009.2 |
| 20260508154548 | 67 | 177 | 0.9 | 7.0 | 0.00 | 0.00 | 0.00 | 74 | 1009.3 |
| 20260508153100 | 67 | 175 | 0.9 | 4.3 | 0.00 | 0.00 | 0.00 | 74 | 1009.4 |
| 20260508151547 | 66 | 175 | 0.9 | 4.3 | 0.00 | 0.00 | 0.00 | 79 | 1009.8 |
| 20260508144535 | 64 | 161 | 0.0 | 1.7 | 0.00 | 0.00 | 0.00 | 84 | 1009.7 |
| 20260508143056 | 63 | 134 | 1.7 | 4.3 | 0.00 | 0.00 | 0.00 | 85 | 1010.2 |
| 20260508141536 | 62 | 159 | 0.0 | 4.3 | 0.00 | 0.00 | 0.00 | 88 | 1009.9 |
| 20260508134538 | 61 | 181 | 0.0 | 4.3 | 0.00 | 0.00 | 0.00 | 90 | 1010.1 |
| 20260508133035 | 61 | 173 | 0.0 | 3.5 | 0.00 | 0.00 | 0.00 | 90 | 1010.1 |
| 20260508131535 | 60 | 174 | 0.0 | 3.5 | 0.00 | 0.00 | 0.00 | 90 | 1010.0 |
| 20260508124534 | 60 | 169 | 0.9 | 3.5 | 0.00 | 0.00 | 0.00 | 90 | 1010.2 |
| 20260508123034 | 60 | 187 | 0.0 | 0.0 | 0.00 | 0.00 | 0.00 | 90 | 1010.8 |
| 20260508121533 | 60 | 184 | 0.0 | 1.7 | 0.00 | 0.00 | 0.00 | 90 | 1010.1 |
| 20260508114533 | 59 | 172 | 0.0 | 0.0 | 0.00 | 0.00 | 0.00 | 89 | 1010.2 |
| 20260508113034 | 60 | 178 | 0.0 | 6.1 | 0.00 | 0.00 | 0.00 | 88 | 1009.9 |
| 20260508111531 | 60 | 176 | 0.0 | 0.0 | 0.00 | 0.00 | 0.00 | 88 | 1010.2 |
| 20260508104541 | 61 | 145 | 0.9 | 2.6 | 0.00 | 0.00 | 0.00 | 86 | 1010.5 |
| 20260508103046 | 61 | 170 | 0.9 | 3.5 | 0.00 | 0.00 | 0.00 | 85 | 1010.1 |
| 20260508101539 | 62 | 244 | 0.0 | 0.0 | 0.00 | 0.00 | 0.00 | 84 | 1010.0 |
| 20260508094528 | 61 | 180 | 0.0 | 0.9 | 0.00 | 0.00 | 0.00 | 84 | 1009.1 |
| 20260508093035 | 61 | 180 | 0.0 | 1.7 | 0.00 | 0.00 | 0.00 | 84 | 1009.0 |
| 20260508091528 | 61 | 179 | 0.9 | 3.5 | 0.00 | 0.00 | 0.00 | 83 | 1009.3 |
| 20260508084638 | 62 | 201 | 0.0 | 0.0 | 0.00 | 0.00 | 0.00 | 81 | 1009.4 |
| 20260508083035 | 62 | 269 | 0.0 | 5.2 | 0.00 | 0.00 | 0.00 | 79 | 1010.5 |
| 20260508081543 | 63 | 36 | 0.0 | 3.5 | 0.00 | 0.00 | 0.00 | 78 | 1009.3 |
| 20260508074520 | 63 | 163 | 0.9 | 1.7 | 0.00 | 0.00 | 0.00 | 75 | 1011.0 |
| 20260508073018 | 62 | 161 | 0.0 | 0.0 | 0.00 | 0.00 | 0.00 | 75 | 1011.3 |
| 20260508071517 | 62 | 161 | 0.0 | 0.0 | 0.00 | 0.00 | 0.00 | 75 | 1010.8 |